TimeCDT,TemperatureF,Dew PointF,Humidity,Sea Level PressureIn,VisibilityMPH,Wind Direction,Wind SpeedMPH,Gust SpeedMPH,PrecipitationIn,Events,Conditions,WindDirDegrees,DateUTC
12:15 AM,54.9,44.8,69,30.19,10.0,SSW,3.5,-,N/A,,Mostly Cloudy,200,2012-10-12 05:15:00
12:35 AM,54.5,45.7,72,30.20,10.0,SSW,3.5,-,N/A,,Mostly Cloudy,200,2012-10-12 05:35:00
12:55 AM,54.9,45.7,71,30.20,10.0,Calm,Calm,-,N/A,,Mostly Cloudy,0,2012-10-12 05:55:00
1:15 AM,55.0,45.9,71,30.20,10.0,Calm,Calm,-,N/A,,Mostly Cloudy,0,2012-10-12 06:15:00
1:35 AM,55.0,45.5,70,30.21,10.0,Calm,Calm,-,N/A,,Scattered Clouds,0,2012-10-12 06:35:00
1:55 AM,54.7,46.2,73,30.21,10.0,Calm,Calm,-,N/A,,Scattered Clouds,0,2012-10-12 06:55:00
3:15 AM,54.1,47.5,78,30.23,10.0,North,5.8,-,N/A,,Overcast,350,2012-10-12 08:15:00
3:35 AM,53.8,45.9,75,30.23,10.0,North,10.4,-,N/A,,Scattered Clouds,360,2012-10-12 08:35:00
3:55 AM,51.3,43.0,73,30.23,10.0,NNE,16.1,21.9,N/A,,Scattered Clouds,20,2012-10-12 08:55:00
4:15 AM,49.5,42.8,78,30.23,10.0,NNE,13.8,-,N/A,,Clear,20,2012-10-12 09:15:00
4:35 AM,48.9,41.9,77,30.24,10.0,NNE,13.8,-,N/A,,Clear,20,2012-10-12 09:35:00
4:55 AM,48.4,41.7,78,30.25,10.0,NNE,13.8,18.4,N/A,,Clear,20,2012-10-12 09:55:00
5:15 AM,47.5,41.2,79,30.26,10.0,NNE,12.7,-,N/A,,Clear,30,2012-10-12 10:15:00
5:35 AM,47.1,41.0,79,30.27,10.0,North,10.4,-,N/A,,Clear,10,2012-10-12 10:35:00
5:55 AM,46.9,39.7,76,30.28,10.0,NNE,13.8,18.4,N/A,,Clear,30,2012-10-12 10:55:00
6:15 AM,46.8,38.8,74,30.28,10.0,NNE,12.7,19.6,N/A,,Clear,20,2012-10-12 11:15:00
6:35 AM,46.4,38.5,74,30.29,10.0,NNE,11.5,-,N/A,,Clear,30,2012-10-12 11:35:00
6:55 AM,45.5,38.5,76,30.31,10.0,NE,8.1,-,N/A,,Clear,40,2012-10-12 11:55:00
7:15 AM,46.0,38.3,74,30.31,10.0,NE,13.8,20.7,N/A,,Clear,40,2012-10-12 12:15:00
7:35 AM,46.0,38.3,74,30.33,10.0,NE,10.4,18.4,N/A,,Clear,40,2012-10-12 12:35:00
7:55 AM,46.4,38.3,73,30.34,10.0,NE,10.4,-,N/A,,Clear,40,2012-10-12 12:55:00
8:15 AM,46.6,38.5,73,30.34,10.0,NE,13.8,20.7,N/A,,Clear,50,2012-10-12 13:15:00
8:35 AM,47.3,39.2,73,30.34,10.0,NE,13.8,19.6,N/A,,Clear,50,2012-10-12 13:35:00
8:55 AM,48.9,40.1,72,30.34,10.0,NE,19.6,25.3,N/A,,Clear,50,2012-10-12 13:55:00
9:15 AM,49.6,40.6,71,30.35,10.0,NE,17.3,21.9,N/A,,Clear,40,2012-10-12 14:15:00
9:55 AM,51.3,41.4,69,30.35,10.0,ENE,13.8,24.2,N/A,,Clear,60,2012-10-12 14:55:00
10:15 AM,52.3,42.1,68,30.37,10.0,ENE,10.4,19.6,N/A,,Clear,60,2012-10-12 15:15:00
10:35 AM,53.8,41.9,64,30.37,10.0,ENE,15.0,-,N/A,,Clear,70,2012-10-12 15:35:00
11:15 AM,55.4,41.7,60,30.37,10.0,East,10.4,16.1,N/A,,Scattered Clouds,80,2012-10-12 16:15:00
11:35 AM,56.8,42.6,59,30.38,10.0,East,8.1,-,N/A,,Clear,90,2012-10-12 16:35:00
11:55 AM,57.2,42.4,58,30.38,10.0,ENE,4.6,-,N/A,,Scattered Clouds,70,2012-10-12 16:55:00
12:15 PM,59.0,43.3,56,30.37,10.0,East,10.4,-,N/A,,Clear,90,2012-10-12 17:15:00
12:55 PM,60.1,43.7,55,30.36,10.0,East,11.5,18.4,N/A,,Clear,100,2012-10-12 17:55:00
1:35 PM,61.5,45.0,55,30.35,10.0,ENE,5.8,-,N/A,,Clear,70,2012-10-12 18:35:00
2:35 PM,62.2,45.1,54,30.31,10.0,ENE,5.8,-,N/A,,Clear,60,2012-10-12 19:35:00
3:15 PM,63.9,46.6,53,30.30,10.0,East,8.1,-,N/A,,Clear,90,2012-10-12 20:15:00
3:55 PM,64.4,47.5,54,30.29,10.0,ESE,6.9,-,N/A,,Clear,110,2012-10-12 20:55:00
4:15 PM,64.2,46.8,53,30.28,10.0,East,6.9,-,N/A,,Clear,100,2012-10-12 21:15:00
4:35 PM,63.9,46.9,54,30.28,7.0,ESE,3.5,-,N/A,,Clear,110,2012-10-12 21:35:00
4:55 PM,63.7,47.1,55,30.27,7.0,East,8.1,-,N/A,,Clear,90,2012-10-12 21:55:00
5:15 PM,62.4,47.1,57,30.27,10.0,East,5.8,-,N/A,,Clear,100,2012-10-12 22:15:00
5:35 PM,61.7,47.5,60,30.27,10.0,ESE,5.8,-,N/A,,Clear,110,2012-10-12 22:35:00
6:15 PM,59.0,47.1,65,30.26,10.0,East,4.6,-,N/A,,Clear,90,2012-10-12 23:15:00
6:55 PM,57.4,46.9,68,30.26,10.0,ENE,3.5,-,N/A,,Clear,70,2012-10-12 23:55:00
7:15 PM,55.9,46.9,72,30.26,10.0,East,4.6,-,N/A,,Clear,100,2012-10-13 00:15:00
7:35 PM,55.6,46.9,73,30.26,10.0,East,3.5,-,N/A,,Clear,90,2012-10-13 00:35:00
8:15 PM,53.6,46.9,78,30.25,10.0,East,5.8,-,N/A,,Clear,90,2012-10-13 01:15:00
8:35 PM,53.6,47.3,79,30.26,10.0,East,4.6,-,N/A,,Clear,100,2012-10-13 01:35:00
8:55 PM,53.6,47.3,79,30.26,10.0,East,5.8,-,N/A,,Clear,100,2012-10-13 01:55:00
9:15 PM,53.6,47.5,80,30.25,10.0,East,5.8,-,N/A,,Clear,100,2012-10-13 02:15:00
9:35 PM,53.6,47.3,79,30.25,10.0,ESE,6.9,-,N/A,,Clear,110,2012-10-13 02:35:00
9:55 PM,54.3,47.7,78,30.24,10.0,ESE,6.9,-,N/A,,Clear,120,2012-10-13 02:55:00
10:15 PM,54.3,47.7,78,30.24,10.0,ESE,5.8,-,N/A,,Clear,120,2012-10-13 03:15:00
10:35 PM,54.0,47.5,79,30.24,7.0,SE,6.9,-,N/A,,Clear,130,2012-10-13 03:35:00
11:35 PM,54.3,46.9,76,30.23,1.2,SE,11.5,-,N/A,,Haze,140,2012-10-13 04:35:00
11:55 PM,54.3,46.9,76,30.23,1.5,SE,9.2,-,N/A,,Haze,140,2012-10-13 04:55:00